Weather History for KAQV - April, 2013

Change the Weather History Date:

Sunday, April 28, 2013

  Actual Average (KPOE) Record (KPOE)
Temperature  
Mean Temperature 74 °F -  
Max Temperature 84 °F 78 °F 89 °F (2002)
Min Temperature 63 °F 58 °F 50 °F (2008)
Cooling Degree Days 9    
Growing Degree Days 24 (Base 50)    
Moisture  
Dew Point 62 °F    
Average Humidity 79    
Maximum Humidity 94    
Minimum Humidity 35    
Precipitation  
Precipitation 0.00 in - - ()
Sea Level Pressure  
Sea Level Pressure 29.96 in    
Wind  
Wind Speed 1 mph (WSW)    
Max Wind Speed 8 mph    
Max Gust Speed -    
Visibility 8 miles    
Events      
Averages and records for this station are not official NWS values.
T = Trace of Precipitation, MM = Missing Value Source: NWS Daily Summary

Daily Weather History Graph

Daily Weather History Graph

Search for Another Location

Airport or City:

Trip Planner

Search our weather history database for the weather conditions in past years. The results will help you decide how hot, cold, wet, or windy it might be!

Date:

Astronomy

Apr. 28, 2013 Rise Set
Actual Time 6:30 AM CDT 7:50 PM CDT
Civil Twilight 6:05 AM CDT 8:16 PM CDT
Nautical Twilight 5:34 AM CDT 8:47 PM CDT
Astronomical Twilight 5:02 AM CDT 9:18 PM CDT
Moon 11:15 PM CDT (4/28) 8:54 AM CDT (4/28)
Length of Visible Light 14h 11m
Length of Day
13h 20m
Waning Gibbous, 88% of the Moon is Illuminated
Apr 28
Waning Gibbous
May 2
Last Quarter
May 9
New
May 17
First Quarter
May 24
Full

Hourly Weather History & Observations

Time (CDT) Temp. Heat Index Dew Point Humidity Pressure Visibility Wind Dir Wind Speed Gust Speed Precip Events Conditions
12:56 AM 68.0 °F - 64.9 °F 90% 29.99 in 9.0 mi Calm Calm - N/A   Mostly Cloudy
1:56 AM 66.9 °F - 64.0 °F 90% 29.99 in 5.0 mi Calm Calm - N/A   Mostly Cloudy
2:56 AM 66.0 °F - 64.0 °F 93% 29.99 in 5.0 mi Calm Calm - N/A   Partly Cloudy
3:08 AM 66.2 °F - 64.4 °F 94% 29.99 in 4.0 mi Calm Calm - N/A   Mostly Cloudy
3:56 AM 66.0 °F - 64.0 °F 93% 29.97 in 4.0 mi Calm Calm - N/A   Mostly Cloudy
4:19 AM 64.4 °F - 62.6 °F 94% 29.97 in 4.0 mi Calm Calm - N/A   Scattered Clouds
4:49 AM 64.4 °F - 62.6 °F 94% 29.96 in 2.5 mi Calm Calm - N/A   Clear
4:56 AM 64.9 °F - 63.0 °F 93% 29.96 in 2.5 mi Calm Calm - N/A   Clear
5:04 AM 64.4 °F - 62.6 °F 94% 29.96 in 3.0 mi Calm Calm - N/A   Clear
5:25 AM 64.4 °F - 62.6 °F 94% 29.96 in 3.0 mi Calm Calm - N/A   Partly Cloudy
5:56 AM 64.9 °F - 63.0 °F 93% 29.96 in 5.0 mi Calm Calm - N/A   Clear
6:56 AM 64.9 °F - 63.0 °F 93% 29.98 in 8.0 mi Calm Calm - N/A   Scattered Clouds
7:56 AM 66.0 °F - 64.0 °F 93% 30.01 in 7.0 mi Calm Calm - N/A   Mostly Cloudy
8:23 AM 66.2 °F - 64.4 °F 94% 30.02 in 8.0 mi Calm Calm - N/A   Mostly Cloudy
8:56 AM 66.9 °F - 64.0 °F 90% 30.02 in 10.0 mi Variable 4.6 mph - N/A   Mostly Cloudy
9:18 AM 68.0 °F - 64.4 °F 88% 30.03 in 10.0 mi Calm Calm - N/A   Mostly Cloudy
9:56 AM 70.0 °F - 63.0 °F 78% 30.01 in 10.0 mi Variable 3.5 mph - N/A   Mostly Cloudy
10:06 AM 69.8 °F - 62.6 °F 78% 30.01 in 10.0 mi West 5.8 mph - N/A   Mostly Cloudy
10:56 AM 72.0 °F - 62.1 °F 71% 29.99 in 10.0 mi Variable 3.5 mph - N/A   Clear
11:56 AM 73.9 °F - 61.0 °F 64% 29.99 in 10.0 mi NNW 4.6 mph - N/A   Clear
12:56 PM 80.1 °F 80.9 °F 60.1 °F 50% 29.95 in 10.0 mi Variable 3.5 mph - N/A   Clear
1:56 PM 82.9 °F 82.8 °F 59.0 °F 44% 29.94 in 10.0 mi Variable 3.5 mph - N/A   Clear
2:56 PM 84.0 °F 83.0 °F 55.9 °F 38% 29.93 in 10.0 mi West 4.6 mph - N/A   Partly Cloudy
3:56 PM 84.0 °F 82.6 °F 54.0 °F 35% 29.90 in 10.0 mi Variable 5.8 mph - N/A   Scattered Clouds
4:56 PM 84.0 °F 82.6 °F 54.0 °F 35% 29.88 in 10.0 mi Variable 5.8 mph - N/A   Partly Cloudy
5:56 PM 80.1 °F 80.6 °F 57.9 °F 47% 29.89 in 10.0 mi South 8.1 mph - N/A   Partly Cloudy
6:56 PM 78.1 °F - 62.1 °F 58% 29.89 in 10.0 mi South 4.6 mph - 0.00 in   Clear
7:56 PM 72.0 °F - 64.0 °F 76% 29.90 in 10.0 mi Calm Calm - 0.00 in   Partly Cloudy
8:56 PM 68.0 °F - 64.0 °F 87% 29.92 in 10.0 mi Calm Calm - N/A   Clear
9:56 PM 66.9 °F - 64.0 °F 90% 29.94 in 10.0 mi Calm Calm - N/A   Clear
10:56 PM 66.0 °F - 64.0 °F 93% 29.94 in 9.0 mi Calm Calm - 0.00 in   Clear
11:56 PM 63.0 °F - 61.0 °F 93% 29.94 in 8.0 mi Calm Calm - N/A   Clear